Time,TemperatureF,DewpointF,PressureIn,WindDirection,WindDirectionDegrees,WindSpeedMPH,WindSpeedGustMPH,Humidity,HourlyPrecipIn,Conditions,Clouds,dailyrainin,SolarRadiationWatts/m^2,SoftwareType,DateUTC
2013-03-03 00:04:00,31.9,20.0,29.94,NNE,20,0.0,0.0,63,0.00,,,0.00,0,weatherlink.com 1.10,2013-03-03 05:04:00,
2013-03-03 00:19:00,31.2,21.0,29.93,NNE,20,0.0,0.0,65,0.00,,,0.00,0,weatherlink.com 1.10,2013-03-03 05:19:00,
2013-03-03 00:34:00,30.7,21.0,29.93,NNE,20,0.0,0.0,67,0.00,,,0.00,0,weatherlink.com 1.10,2013-03-03 05:34:00,
2013-03-03 00:49:00,30.4,21.0,29.94,NNE,20,0.0,0.0,68,0.00,,,0.00,0,weatherlink.com 1.10,2013-03-03 05:49:00,
2013-03-03 01:04:00,29.8,20.0,29.94,NNE,20,0.0,0.0,68,0.00,,,0.00,0,weatherlink.com 1.10,2013-03-03 06:04:00,
2013-03-03 01:19:00,29.4,21.0,29.94,NNE,20,0.0,0.0,70,0.00,,,0.00,0,weatherlink.com 1.10,2013-03-03 06:19:00,
2013-03-03 01:34:00,28.9,21.0,29.94,NNE,20,0.0,0.0,73,0.00,,,0.00,0,weatherlink.com 1.10,2013-03-03 06:34:00,
2013-03-03 01:49:00,28.4,22.0,29.94,NNE,20,0.0,0.0,76,0.00,,,0.00,0,weatherlink.com 1.10,2013-03-03 06:49:00,
2013-03-03 02:04:00,27.9,22.0,29.93,NNE,20,0.0,0.0,77,0.00,,,0.00,0,weatherlink.com 1.10,2013-03-03 07:04:00,
2013-03-03 02:19:00,27.6,21.0,29.93,NNE,20,0.0,0.0,76,0.00,,,0.00,0,weatherlink.com 1.10,2013-03-03 07:19:00,
2013-03-03 02:34:00,27.4,21.0,29.93,NNE,20,0.0,0.0,78,0.00,,,0.00,0,weatherlink.com 1.10,2013-03-03 07:34:00,
2013-03-03 02:49:00,27.1,21.0,29.92,NNE,20,0.0,0.0,79,0.00,,,0.00,0,weatherlink.com 1.10,2013-03-03 07:49:00,
2013-03-03 03:04:00,27.0,21.0,29.92,NNE,20,0.0,0.0,78,0.00,,,0.00,0,weatherlink.com 1.10,2013-03-03 08:04:00,
2013-03-03 03:19:00,26.8,20.0,29.92,NNE,20,0.0,0.0,75,0.00,,,0.00,0,weatherlink.com 1.10,2013-03-03 08:19:00,
2013-03-03 03:34:00,26.6,19.0,29.92,NNE,20,0.0,0.0,74,0.00,,,0.00,0,weatherlink.com 1.10,2013-03-03 08:34:00,
2013-03-03 03:50:00,26.4,20.0,29.92,NNE,20,0.0,0.0,77,0.00,,,0.00,0,weatherlink.com 1.10,2013-03-03 08:50:00,
2013-03-03 04:05:00,26.5,21.0,29.92,NNE,20,0.0,0.0,78,0.00,,,0.00,0,weatherlink.com 1.10,2013-03-03 09:05:00,
2013-03-03 04:20:00,26.7,21.0,29.92,NNE,20,0.0,0.0,80,0.00,,,0.00,0,weatherlink.com 1.10,2013-03-03 09:20:00,
2013-03-03 04:35:00,26.5,21.0,29.93,NNE,20,0.0,0.0,79,0.00,,,0.00,0,weatherlink.com 1.10,2013-03-03 09:35:00,
2013-03-03 04:50:00,26.3,22.0,29.93,NNE,20,0.0,0.0,83,0.00,,,0.00,0,weatherlink.com 1.10,2013-03-03 09:50:00,
2013-03-03 05:05:00,25.8,22.0,29.93,NNE,20,0.0,0.0,84,0.00,,,0.00,0,weatherlink.com 1.10,2013-03-03 10:05:00,
2013-03-03 05:20:00,25.4,21.0,29.94,NNE,20,0.0,0.0,83,0.00,,,0.00,0,weatherlink.com 1.10,2013-03-03 10:20:00,
2013-03-03 05:35:00,25.3,21.0,29.94,NNE,20,0.0,0.0,85,0.00,,,0.00,0,weatherlink.com 1.10,2013-03-03 10:35:00,
2013-03-03 05:50:00,25.0,21.0,29.94,NNE,20,0.0,0.0,85,0.00,,,0.00,0,weatherlink.com 1.10,2013-03-03 10:50:00,
2013-03-03 06:05:00,24.8,22.0,29.94,NNE,20,0.0,0.0,87,0.00,,,0.00,0,weatherlink.com 1.10,2013-03-03 11:05:00,
2013-03-03 06:20:00,24.7,21.0,29.94,NNE,20,0.0,0.0,87,0.00,,,0.00,0,weatherlink.com 1.10,2013-03-03 11:20:00,
2013-03-03 06:35:00,24.9,21.0,29.94,NNE,20,0.0,0.0,86,0.00,,,0.00,0,weatherlink.com 1.10,2013-03-03 11:35:00,
2013-03-03 06:50:00,25.2,21.0,29.94,NNE,20,0.0,0.0,84,0.00,,,0.00,9,weatherlink.com 1.10,2013-03-03 11:50:00,
2013-03-03 07:05:00,25.4,22.0,29.95,NNE,20,0.0,0.0,85,0.00,,,0.00,18,weatherlink.com 1.10,2013-03-03 12:05:00,
2013-03-03 07:20:00,25.8,21.0,29.95,NNE,20,0.0,0.0,81,0.00,,,0.00,40,weatherlink.com 1.10,2013-03-03 12:20:00,
2013-03-03 07:35:00,27.1,22.0,29.95,NNW,340,0.0,1.0,80,0.00,,,0.00,95,weatherlink.com 1.10,2013-03-03 12:35:00,
2013-03-03 07:50:00,30.1,23.0,29.96,NNW,331,0.0,1.0,74,0.00,,,0.00,167,weatherlink.com 1.10,2013-03-03 12:50:00,
2013-03-03 08:05:00,32.9,21.0,29.96,WNW,284,2.0,5.0,63,0.00,,,0.00,204,weatherlink.com 1.10,2013-03-03 13:05:00,
2013-03-03 08:20:00,34.3,22.0,29.96,SW,228,3.0,6.0,61,0.00,,,0.00,255,weatherlink.com 1.10,2013-03-03 13:20:00,
2013-03-03 08:35:00,35.3,21.0,29.96,SW,225,5.0,5.0,57,0.00,,,0.00,302,weatherlink.com 1.10,2013-03-03 13:35:00,
2013-03-03 08:50:00,35.8,20.0,29.97,NNW,331,2.0,8.0,54,0.00,,,0.00,353,weatherlink.com 1.10,2013-03-03 13:50:00,
2013-03-03 09:05:00,36.4,21.0,29.96,WNW,299,0.0,6.0,54,0.00,,,0.00,401,weatherlink.com 1.10,2013-03-03 14:05:00,
2013-03-03 09:20:00,37.4,22.0,29.96,NNE,32,0.0,6.0,54,0.00,,,0.00,445,weatherlink.com 1.10,2013-03-03 14:20:00,
2013-03-03 09:35:00,38.2,21.0,29.96,East,93,1.0,5.0,50,0.00,,,0.00,494,weatherlink.com 1.10,2013-03-03 14:35:00,
2013-03-03 09:51:00,38.8,21.0,29.95,NNE,12,2.0,5.0,49,0.00,,,0.00,575,weatherlink.com 1.10,2013-03-03 14:51:00,
2013-03-03 10:06:00,39.7,21.0,29.95,North,355,3.0,6.0,48,0.00,,,0.00,596,weatherlink.com 1.10,2013-03-03 15:06:00,
2013-03-03 10:21:00,38.7,20.0,29.95,SE,126,1.0,5.0,48,0.00,,,0.00,673,weatherlink.com 1.10,2013-03-03 15:21:00,
2013-03-03 10:36:00,39.9,20.0,29.95,ESE,109,1.0,10.0,45,0.00,,,0.00,656,weatherlink.com 1.10,2013-03-03 15:36:00,
2013-03-03 10:51:00,39.5,21.0,29.95,SSW,197,1.0,7.0,48,0.00,,,0.00,714,weatherlink.com 1.10,2013-03-03 15:51:00,
2013-03-03 11:06:00,39.7,20.0,29.95,WSW,239,7.0,10.0,46,0.00,,,0.00,339,weatherlink.com 1.10,2013-03-03 16:06:00,
2013-03-03 11:21:00,40.3,21.0,29.95,SSW,198,9.0,10.0,47,0.00,,,0.00,758,weatherlink.com 1.10,2013-03-03 16:21:00,
2013-03-03 11:36:00,40.8,20.0,29.95,WSW,251,2.0,14.0,44,0.00,,,0.00,823,weatherlink.com 1.10,2013-03-03 16:36:00,
2013-03-03 11:51:00,41.1,21.0,29.94,NW,326,2.0,7.0,44,0.00,,,0.00,823,weatherlink.com 1.10,2013-03-03 16:51:00,
2013-03-03 12:06:00,40.6,20.0,29.94,West,268,3.0,10.0,44,0.00,,,0.00,285,weatherlink.com 1.10,2013-03-03 17:06:00,
2013-03-03 12:21:00,40.6,21.0,29.93,NNE,27,4.0,6.0,45,0.00,,,0.00,928,weatherlink.com 1.10,2013-03-03 17:21:00,
2013-03-03 12:36:00,40.8,21.0,29.92,SW,236,4.0,7.0,46,0.00,,,0.00,745,weatherlink.com 1.10,2013-03-03 17:36:00,
2013-03-03 12:51:00,41.5,20.0,29.91,SW,217,7.0,13.0,42,0.00,,,0.00,930,weatherlink.com 1.10,2013-03-03 17:51:00,
2013-03-03 13:06:00,43.0,23.0,29.90,NW,305,0.0,7.0,45,0.00,,,0.00,786,weatherlink.com 1.10,2013-03-03 18:06:00,
2013-03-03 13:21:00,43.8,21.0,29.90,SW,236,3.0,9.0,40,0.00,,,0.00,334,weatherlink.com 1.10,2013-03-03 18:21:00,
2013-03-03 13:36:00,43.6,22.0,29.89,West,276,0.0,8.0,42,0.00,,,0.00,459,weatherlink.com 1.10,2013-03-03 18:36:00,
2013-03-03 13:51:00,43.7,21.0,29.88,WNW,297,1.0,11.0,41,0.00,,,0.00,779,weatherlink.com 1.10,2013-03-03 18:51:00,
2013-03-03 14:06:00,44.2,22.0,29.87,SSW,210,5.0,11.0,42,0.00,,,0.00,724,weatherlink.com 1.10,2013-03-03 19:06:00,
2013-03-03 14:21:00,45.2,21.0,29.87,SW,222,2.0,6.0,38,0.00,,,0.00,615,weatherlink.com 1.10,2013-03-03 19:21:00,
2013-03-03 14:36:00,45.1,23.0,29.88,WNW,302,2.0,11.0,42,0.00,,,0.00,598,weatherlink.com 1.10,2013-03-03 19:36:00,
2013-03-03 14:51:00,44.9,21.0,29.87,North,5,2.0,11.0,39,0.00,,,0.00,575,weatherlink.com 1.10,2013-03-03 19:51:00,
2013-03-03 15:06:00,45.5,21.0,29.88,NW,306,1.0,10.0,38,0.00,,,0.00,578,weatherlink.com 1.10,2013-03-03 20:06:00,
2013-03-03 15:21:00,45.3,22.0,29.87,NNW,340,3.0,7.0,40,0.00,,,0.00,452,weatherlink.com 1.10,2013-03-03 20:21:00,
2013-03-03 15:36:00,45.4,22.0,29.88,North,9,5.0,7.0,40,0.00,,,0.00,508,weatherlink.com 1.10,2013-03-03 20:36:00,
2013-03-03 15:51:00,45.5,22.0,29.88,SW,222,9.0,13.0,39,0.00,,,0.00,90,weatherlink.com 1.10,2013-03-03 20:51:00,
2013-03-03 16:06:00,45.1,22.0,29.88,WSW,251,3.0,11.0,40,0.00,,,0.00,417,weatherlink.com 1.10,2013-03-03 21:06:00,
2013-03-03 16:21:00,45.5,22.0,29.88,WNW,303,1.0,9.0,39,0.00,,,0.00,306,weatherlink.com 1.10,2013-03-03 21:21:00,
2013-03-03 16:36:00,45.7,22.0,29.87,WSW,248,3.0,8.0,40,0.00,,,0.00,323,weatherlink.com 1.10,2013-03-03 21:36:00,
2013-03-03 16:51:00,45.1,22.0,29.88,NW,304,3.0,10.0,40,0.00,,,0.00,77,weatherlink.com 1.10,2013-03-03 21:51:00,
2013-03-03 17:06:00,45.1,22.0,29.88,West,259,0.0,7.0,40,0.00,,,0.00,195,weatherlink.com 1.10,2013-03-03 22:06:00,
2013-03-03 17:21:00,45.2,23.0,29.88,West,269,0.0,6.0,41,0.00,,,0.00,121,weatherlink.com 1.10,2013-03-03 22:21:00,
2013-03-03 17:36:00,43.6,22.0,29.89,SW,226,5.0,8.0,42,0.00,,,0.00,28,weatherlink.com 1.10,2013-03-03 22:36:00,
2013-03-03 17:51:00,42.9,23.0,29.89,West,265,2.0,10.0,45,0.00,,,0.00,23,weatherlink.com 1.10,2013-03-03 22:51:00,
2013-03-03 18:06:00,42.3,23.0,29.90,ESE,106,0.0,7.0,46,0.00,,,0.00,9,weatherlink.com 1.10,2013-03-03 23:06:00,
2013-03-03 18:21:00,41.6,23.0,29.91,NW,325,0.0,3.0,47,0.00,,,0.00,0,weatherlink.com 1.10,2013-03-03 23:21:00,
2013-03-03 18:36:00,40.8,23.0,29.92,North,355,4.0,7.0,50,0.00,,,0.00,0,weatherlink.com 1.10,2013-03-03 23:36:00,
2013-03-03 18:51:00,40.0,22.0,29.93,NNE,22,1.0,9.0,48,0.00,,,0.00,0,weatherlink.com 1.10,2013-03-03 23:51:00,
2013-03-03 19:06:00,39.1,22.0,29.93,WSW,254,4.0,4.0,51,0.00,,,0.00,0,weatherlink.com 1.10,2013-03-04 00:06:00,
2013-03-03 19:21:00,38.2,21.0,29.94,SW,215,0.0,2.0,51,0.00,,,0.00,0,weatherlink.com 1.10,2013-03-04 00:21:00,
2013-03-03 19:36:00,37.5,21.0,29.95,West,273,0.0,4.0,52,0.00,,,0.00,0,weatherlink.com 1.10,2013-03-04 00:36:00,
2013-03-03 19:51:00,36.9,20.0,29.96,NW,321,0.0,6.0,51,0.00,,,0.00,0,weatherlink.com 1.10,2013-03-04 00:51:00,
2013-03-03 20:07:00,36.2,19.0,29.96,West,261,1.0,5.0,51,0.00,,,0.00,0,weatherlink.com 1.10,2013-03-04 01:07:00,
2013-03-03 20:21:00,35.7,19.0,29.97,WNW,293,0.0,6.0,52,0.00,,,0.00,0,weatherlink.com 1.10,2013-03-04 01:21:00,
2013-03-03 20:37:00,35.1,20.0,29.98,West,266,0.0,4.0,54,0.00,,,0.00,0,weatherlink.com 1.10,2013-03-04 01:37:00,
2013-03-03 20:52:00,34.6,18.0,29.98,NNW,333,0.0,3.0,52,0.00,,,0.00,0,weatherlink.com 1.10,2013-03-04 01:52:00,
2013-03-03 21:07:00,34.3,19.0,29.98,NW,323,1.0,3.0,53,0.00,,,0.00,0,weatherlink.com 1.10,2013-03-04 02:07:00,
2013-03-03 21:22:00,33.9,19.0,29.99,North,9,0.0,4.0,54,0.00,,,0.00,0,weatherlink.com 1.10,2013-03-04 02:22:00,
2013-03-03 21:37:00,33.6,18.0,29.99,NW,304,0.0,5.0,54,0.00,,,0.00,0,weatherlink.com 1.10,2013-03-04 02:37:00,
2013-03-03 21:52:00,33.2,18.0,30.00,SSW,209,0.0,5.0,55,0.00,,,0.00,0,weatherlink.com 1.10,2013-03-04 02:52:00,
2013-03-03 22:07:00,32.9,19.0,30.00,ESE,116,0.0,1.0,56,0.00,,,0.00,0,weatherlink.com 1.10,2013-03-04 03:07:00,
2013-03-03 22:22:00,32.7,18.0,30.00,NNW,329,0.0,4.0,56,0.00,,,0.00,0,weatherlink.com 1.10,2013-03-04 03:22:00,
2013-03-03 22:37:00,32.2,18.0,30.00,NNW,327,0.0,1.0,57,0.00,,,0.00,0,weatherlink.com 1.10,2013-03-04 03:37:00,
2013-03-03 22:52:00,31.6,18.0,30.00,NNW,327,0.0,0.0,58,0.00,,,0.00,0,weatherlink.com 1.10,2013-03-04 03:52:00,
2013-03-03 23:07:00,31.1,18.0,30.00,North,355,0.0,3.0,59,0.00,,,0.00,0,weatherlink.com 1.10,2013-03-04 04:07:00,
2013-03-03 23:22:00,30.8,18.0,30.00,North,355,0.0,1.0,60,0.00,,,0.00,0,weatherlink.com 1.10,2013-03-04 04:22:00,
2013-03-03 23:37:00,30.5,18.0,30.01,WNW,296,0.0,2.0,61,0.00,,,0.00,0,weatherlink.com 1.10,2013-03-04 04:37:00,
2013-03-03 23:52:00,30.0,18.0,30.00,WNW,296,0.0,0.0,61,0.00,,,0.00,0,weatherlink.com 1.10,2013-03-04 04:52:00,